Jackpot

Texas Poker Multi Jackpot System

Kini Telah hadir Jackpot SUPER ROYAL FLUSH

Kini Telah hadir Jackpot 2000 (khusus table VIP keatas).

Ikutilah global jackpot yang tersedia di system kami, dengan system jackpot terbaru dan pertama di indonesia, anda dapat membeli jackpot dengan harga 100 rupiah saja dan menangkan hadiahnya hingga puluhan juta rupiah.

Jackpot bukanlah suatu keharusan untuk dibeli, namun kami memberikan suatu fitur tambahan untuk member tercinta dari www.galatamapoker.com.

Terdapat tiga pilihan harga jackpot yang bisa anda beli yaitu :100,500,1000 dan 2000(khusus table VIP Keatas) rupiah.

Hadiah dari Multi jackpot system www.galatamapoker.com

  1. full house x 10 harga jackpot yang anda beli.
      (contoh:anda membeli 1000 maka:1000 X10 = 10.000)
  2. four of kind x 250 harga jackpot yang anda beli
      (contoh:anda membeli 1000 maka:1000 X250 = 250.000)
  3. Straight flush x 1200
      (contoh:anda membeli 1000 maka:1000 X1200 = 1.200.000)
  4. Royal flush x 10000 harga jackpot yang anda beli
      (contoh:anda membeli 1000 maka:1000 X10000 = 10.000.000)
  5. SUPER ROYAL FLUSH x 30000 harga jackpot yang anda beli
      (contoh:anda membeli 1000 maka:1000 X30000 = 30.000.000)

Kondisi kartu

  1. full house adalah kondisi kartu dimana kartu anda dan kartu tengah dengan total 7 kartu bisa mendapatkan nilai 5 kartu dengan kombinasi 1 tris(three of kind) dan 1 pair, contoh 3 kartu 10 dan 2 kartu 5
  2. Four of kind adalah kondisi kartu dimana kartu anda dan kartu tengah dengan total 7 kartu bisa mendapatkan nilai 5 kartu dengan kombinasi 4 kartu yang sama jumlah dan 1 kartu apapun juga contoh anda mendapatkan 4 buah kartu angka 3 dan 1 kartu apapun.
  3. Staright flush adalah kondisi kartu dimana kartu anda dan kartu tengah dengan total 7 kartu bisa mendapatkan nilai 5 kartu dengan kombinasi seri / staright dengan kembang yang sama contoh : urutan kartu dari angka 5, 6, 7, 8 , 9 10 dengan kembang yg sama misalnya as hati
  4. Royal flush adalah kondisi kartu dimana kartu anda dan kartu tengah dengan total 7 kartu bisa mendapatkan nilai 5 kartu dengan kombinasi seri / staright dengan kembang yang sama tetapi kartu tersebut haruslah dimulai dari 10. contoh 10, Queen, Jack, King dan aces dengan kembang yang sama
  5. Super Royal flush adalah kondisi kartu dimana Kedua kartu anda digabung dengan 3 kartu pertama meja haruslah royal flush. contoh kartu anda 10,Queen kembang sama dan 3 kartu pertama meja adalah Jack, King dan aces dengan kembang yang sama

Demikian adalah penjelasan dari Multi Jackpot www.galatamapoker.com terima kasih dan selamat bermain salam hoki dari kami

Texas Poker Jackpot Winner

TOP SUPER ROYAL FLUSH
No.TanggalNamaPriceWin
119/09 09:32VISUAL_88Super Royal flush30,000,000
219/09 04:30SEKELESuper Royal flush6,000,000
319/09 03:55E89695E9Super Royal flush6,000,000
419/09 03:47BANGS4Super Royal flush3,000,000
519/09 03:32MANAP994Super Royal flush6,000,000
TOP ROYAL FLUSH
No.TanggalNamaPriceWin
119/09 15:17GOOGLEJPRoyal flush5,000,000
219/09 14:42OKK89Royal flush2,000,000
319/09 14:42DORR5OKRoyal flush2,000,000
419/09 14:28SIRJTRoyal flush2,000,000
519/09 14:16IMAM199050Royal flush5,000,000
TOP STRAIGHT FLUSH
No.TanggalNamaPriceWin
119/09 15:35BUHATOStraight Flush600,000
219/09 15:35BOBOYS_7Straight Flush240,000
319/09 15:32MANUNGGAL2Straight Flush240,000
419/09 15:31JALU33Straight Flush600,000
519/09 15:30DWBTPONP89Straight Flush1,200,000
LATEST JACKPOT
No.TanggalNamaPriceWin
119/09 15:36SEMBOLE833Full House2,000
219/09 15:36WEW46Full House5,000
319/09 15:36MILA8877Full House5,000
419/09 15:36YMAGICFull House2,000
519/09 15:36MLML93Full House2,000
619/09 15:36DEWA85Full House2,000
719/09 15:35UWIIN0202Full House1,000
819/09 15:35BTUH_30JTFull House5,000
919/09 15:35LOV15CINT4Full House5,000
1019/09 15:35TEMPOYAAKFull House5,000
1119/09 15:35AZZAMJIEFull House20,000
1219/09 15:35ZISYCOCMGTFull House2,000
1319/09 15:35LONGGEHFull House2,000
1419/09 15:35TADAH3Full House20,000
1519/09 15:35CD012425Full House10,000
1619/09 15:35MISAPIFull House5,000
1719/09 15:35B2DF07F1Full House10,000
1819/09 15:35TANGDEWAFull House10,000
1919/09 15:35MELLY22Full House1,000
2019/09 15:35SERANJFull House2,000
2119/09 15:35RINDU70Four Of A Kind50,000
2219/09 15:35LK4DTALO99Full House2,000
2319/09 15:35JHONSON11Full House5,000
2419/09 15:35K1N9SFull House2,000
2519/09 15:35EGIT77Full House1,000
2619/09 15:35IDR30WINERFull House1,000
2719/09 15:35ARMEKAFull House2,000
2819/09 15:35KANIA123Full House2,000
2919/09 15:35BUHATOStraight Flush600,000
3019/09 15:35GHOSHFull House10,000
3119/09 15:35CAWETSOBEKFull House10,000
3219/09 15:35JOKPENGFull House10,000
3319/09 15:35CB914340Full House2,000
3419/09 15:35YULINA79Full House2,000
3519/09 15:35ANABEL111Full House500
3619/09 15:35DESTA08Four Of A Kind125,000
3719/09 15:35RAZAK26Full House1,000
3819/09 15:35BU4NG001Full House5,000
3919/09 15:35BACAN99Full House1,000
4019/09 15:35PPKKAUFull House2,000
4119/09 15:35X5FRFull House2,000
4219/09 15:353NJUKBOYFull House5,000
4319/09 15:35BADAY420Full House5,000
4419/09 15:35SS3MPAK006Full House2,000
4519/09 15:35SWEET87Full House500
4619/09 15:35E577E0EEFull House1,000
4719/09 15:35C4KILFull House5,000
4819/09 15:35SOETJIPTO8Full House2,000
4919/09 15:35YMAGICFull House2,000
5019/09 15:35DANI466Full House1,000

Domino Multi Jackpot System

Ikutilah global jackpot yang tersedia di system kami, dengan system jackpot terbaru dan pertama di indonesia, anda dapat membeli jackpot dengan harga 100 rupiah saja dan menangkan hadiahnya hingga puluhan juta rupiah.

Jackpot bukanlah suatu keharusan untuk dibeli, namun kami memberikan suatu fitur tambahan untuk member tercinta dari www.galatamapoker.com.

Terdapat tiga pilihan harga jackpot yang bisa anda beli yaitu :100,500 dan 1000 rupiah.

Hadiah dari Multi jackpot system www.galatamapoker.com

  1. Murni Kecil x 50 harga jackpot yang anda beli.
      (contoh:anda membeli 1000 maka:1000 X 50 = 50.000)
  2. Murni Besar x 50 harga jackpot yang anda beli
      (contoh:anda membeli 1000 maka:1000 X 50 = 50.000)
  3. BALAK x 100 harga jackpot yang anda beli
      (contoh:anda membeli 1000 maka:1000 X 100 = 100.000)
  4. ENAM DEWA x 6666 harga jackpot yang anda beli
      (contoh:anda membeli 1000 maka:1000 X 6666 = 6.666.000)

Demikian adalah penjelasan dari Multi Jackpot www.galatamapoker.com terima kasih dan selamat bermain salam hoki dari kami

Domino Jackpot Winner

TOP ENAM DEWA
No.TanggalNamaPriceWin
119/09 12:23BOSNCOS99murni enam6,666,000
219/09 08:30O012345murni enam6,666,000
319/09 08:09RADEN_JAZZmurni enam3,333,000
419/09 07:23CAMONKKmurni enam6,666,000
519/09 05:25IMPOR202murni enam3,333,000
TOP BALAK
No.TanggalNamaPriceWin
119/09 15:36JUMATSURObalak100,000
219/09 15:33DENDICS9balak100,000
319/09 15:30DODOI919balak100,000
419/09 15:30ABON09balak10,000
519/09 15:29KALVENObalak10,000
LATEST JACKPOT
No.TanggalNamaPriceWin
119/09 15:36JUMATSURObalak100,000
219/09 15:35BEDJO121murni kecil25,000
319/09 15:35MERAH66murni kecil5,000
419/09 15:35D_P38murni besar50,000
519/09 15:35SANTOS10murni kecil5,000
619/09 15:34GRAPmurni kecil50,000
719/09 15:34B1KB0Smurni besar25,000
819/09 15:34CO90murni besar5,000
919/09 15:34BOLANGAMINmurni besar50,000
1019/09 15:34C0390923murni kecil25,000
1119/09 15:33EMON168murni besar50,000
1219/09 15:33DENDICS9balak100,000
1319/09 15:33KABOA91murni besar25,000
1419/09 15:33KUYAT07murni besar25,000
1519/09 15:31AYEE105murni kecil5,000
1619/09 15:31SAMEN23murni kecil5,000
1719/09 15:30ZUIIImurni besar50,000
1819/09 15:30AMSYI14murni besar5,000
1919/09 15:30DODOI919balak100,000
2019/09 15:30ABON09balak10,000
2119/09 15:30AYEE105murni besar25,000
2219/09 15:30FRENDYYANmurni besar50,000
2319/09 15:294_1YAT07murni besar25,000
2419/09 15:29KALVENObalak10,000
2519/09 15:29LADINDA07murni kecil25,000
2619/09 15:29LEPAY16lucky9910,000
2719/09 15:29MERAH66murni besar5,000
2819/09 15:28OPAYmurni besar25,000
2919/09 15:28JOSAH69murni besar25,000
3019/09 15:28ELANG888murni besar25,000
3119/09 15:27RAJA4317murni besar50,000
3219/09 15:27ZUSUKI88balak100,000
3319/09 15:27GRD1BOYAWWmurni besar50,000
3419/09 15:26A68SARAH123793balak50,000
3519/09 15:26SANENDRYYmurni besar25,000
3619/09 15:26MEKKIKUbalak100,000
3719/09 15:26DARGO13murni kecil50,000
3819/09 15:26IMENZ017murni kecil50,000
3919/09 15:26ANGEL501lucky9950,000
4019/09 15:25LK4DALP4murni kecil5,000
4119/09 15:25JEL77murni kecil50,000
4219/09 15:25VJVIAmurni besar50,000
4319/09 15:25LADINDA07murni kecil25,000
4419/09 15:24CLARAIMUT0murni kecil5,000
4519/09 15:23KOSONG00murni kecil25,000
4619/09 15:23ZUSUKI88murni besar50,000
4719/09 15:22JOSAH69balak50,000
4819/09 15:22BLUR2107balak50,000
4919/09 15:20RBS497murni kecil50,000
5019/09 15:20DWBTAHAI98balak100,000

Ceme Multi Jackpot System

Jackpot dilihat dari gabungan kartu pemain dengan kartu bandar. Bandar harus membeli jackpot sebanyak jumlah player yang sedang duduk. Sebagai contoh bila terdapat 3 pemain duduk bermain, dan bandar memutuskan untuk membeli jackpot Rp 1.000, maka pada periode tersebut bandar akan membeli jackpot sebanyak 3xRp1.000 = Rp3.000.

Jackpot bukanlah suatu keharusan untuk dibeli, namun kami memberikan suatu fitur tambahan untuk member tercinta dari www.galatamapoker.com.

Terdapat tiga pilihan harga jackpot yang bisa anda beli yaitu :100,500 dan 1000 rupiah.

Hadiah dari Multi jackpot system www.galatamapoker.com

  1. Murni Kecil x 50 harga jackpot yang anda beli.
      (contoh:anda membeli 1000 maka:1000 X 50 = 50.000)
  2. Murni Besar x 50 harga jackpot yang anda beli
      (contoh:anda membeli 1000 maka:1000 X 50 = 50.000)
  3. BALAK x 200 harga jackpot yang anda beli
      (contoh:anda membeli 1000 maka:1000 X 200 = 200.000)
  4. ENAM DEWA x 6666 harga jackpot yang anda beli
      (contoh:anda membeli 1000 maka:1000 X 6666 = 6.666.000)

Demikian adalah penjelasan dari Multi Jackpot www.galatamapoker.com terima kasih dan selamat bermain salam hoki dari kami

Ceme Jackpot Winner

TOP ENAM DEWA
No.TanggalNamaPriceWin
119/09 15:31GARONG1010murni enam666,600
219/09 15:25LUSI2703murni enam6,666,000
319/09 15:16IBP88687murni enam3,333,000
419/09 14:58TANAKBIDmurni enam6,666,000
519/09 14:43BROLIN95murni enam3,333,000
TOP BALAK
No.TanggalNamaPriceWin
119/09 15:36WARTO079balak200,000
219/09 15:35HAMI1212balak200,000
319/09 15:35SENIOR152balak200,000
419/09 15:35HAAGENDAZSbalak200,000
519/09 15:34DWBTAJAA86balak200,000
LATEST JACKPOT
No.TanggalNamaPriceWin
119/09 15:36WARTO079balak200,000
219/09 15:35FGANARKI12murni kecil5,000
319/09 15:35NASRI02murni kecil50,000
419/09 15:35DONTTRUSTMmurni kecil50,000
519/09 15:35HEDOT007Kmurni besar50,000
619/09 15:35PERSIJA56murni kecil50,000
719/09 15:35FAHMI234murni kecil5,000
819/09 15:35JHONI111murni kecil25,000
919/09 15:35ATESYANTIKmurni kecil50,000
1019/09 15:35ROMIARDIANmurni kecil5,000
1119/09 15:35HAMI1212balak200,000
1219/09 15:35SENIOR152balak200,000
1319/09 15:35HAAGENDAZSbalak200,000
1419/09 15:35CJ200489murni besar50,000
1519/09 15:35ROZAK13murni besar50,000
1619/09 15:35CJ200489murni besar50,000
1719/09 15:35WELEQQ66murni kecil50,000
1819/09 15:35BISON111murni kecil50,000
1919/09 15:34PERSIJA56murni kecil50,000
2019/09 15:34FAHMI234murni kecil5,000
2119/09 15:34BD_810AJAmurni kecil50,000
2219/09 15:34DWBTAJAA86balak200,000
2319/09 15:34BC8C126Fmurni besar50,000
2419/09 15:34HARMONY01murni besar5,000
2519/09 15:34T988RSD123murni besar50,000
2619/09 15:34LEGAmurni besar50,000
2719/09 15:34JOXZIN017murni besar5,000
2819/09 15:34JUDI87_balak20,000
2919/09 15:34JUDI87_murni besar5,000
3019/09 15:34PIPATE96murni besar50,000
3119/09 15:34LUX220894murni kecil25,000
3219/09 15:34EBE8F3EFmurni kecil5,000
3319/09 15:34LUX220894murni kecil25,000
3419/09 15:34AZHARA1505murni kecil5,000
3519/09 15:34MONYET2murni kecil25,000
3619/09 15:34BEWOKWOKWOmurni kecil50,000
3719/09 15:34NEXT27murni besar50,000
3819/09 15:34R03KYEF99murni besar5,000
3919/09 15:33HARTOTO537murni besar50,000
4019/09 15:33MIFTAH68murni kecil50,000
4119/09 15:33IDNG8612murni kecil5,000
4219/09 15:33SE7ENSKYmurni besar50,000
4319/09 15:33AGOESS179murni kecil50,000
4419/09 15:33OMPEL49035murni kecil50,000
4519/09 15:33B4B15murni besar5,000
4619/09 15:33DOOSAN52murni kecil50,000
4719/09 15:33ATESYANTIKmurni kecil50,000
4819/09 15:33DEDI_92murni kecil25,000
4919/09 15:32TRIHOKIQQmurni kecil50,000
5019/09 15:32MAUAPACOBAmurni kecil50,000